Home   Weather   Townsville   Past weeks

Flag for Australia Past Weather in Townsville, Queensland, Australia — Yesterday and Last 2 Weeks

Now
81 °F

Sunny.


Feels Like: 80 °F
Forecast: 69 / 79 °F
Wind: 10 mph from Southeast

Location: Townsville Amo

Current Time: Apr 30, 2017 at 11:47:04 am

Latest Report: Apr 30, 2017 at 11:00 am


Visibility: 10 mi

Pressure: 30.01 "Hg

Humidity: 39%

Dew Point: 54 °F

Location of TownsvilleLocation

Past Weather in Townsville — Graph

°F

Townsville Temperature Yesterday

Maximum temperature yesterday: 79 °F (at 12:30 pm)
Minimum temperature yesterday: 54 °F (at 3:30 am)
Average temperature yesterday: 67 °F

High & Low Weather Summary for the Past Weeks

 TemperatureHumidityPressure
High91 °F (Apr 27, 2:00 pm)100% (Apr 26, 12:00 am)30.09 "Hg (Apr 26, 12:00 am)
Low54 °F (Apr 29, 3:30 am)15% (Apr 28, 4:00 pm)29.80 "Hg (Apr 27, 3:00 pm)
Average75 °F66%29.99 "Hg
* Reported Apr 15 10:00 am — Apr 30 10:00 am, Townsville, Weather by CustomWeather, © 2017

Note: Actual official high and low records may vary slightly from our data, if they occured in-between our weather recording intervals... More about our weather records

Advertising

Townsville Weather History for the Previous 24 Hours

Scroll right to see more
 ConditionsComfort  
Time TempWeatherWind HumidityBarometerVisibility
10:00 am
Sun, Apr 30
79 °FPassing clouds.7 mph45%30.01 "HgN/A
9:30 am77 °FPassing clouds.7 mph47%30.04 "HgN/A
9:00 am75 °FPassing clouds.6 mph50%30.04 "HgN/A
8:30 am70 °FSunny.1 mph69%30.04 "Hg10 mi
8:00 am68 °FPassing clouds.5 mph73%30.04 "HgN/A
7:30 am64 °FPassing clouds.1 mph78%30.04 "HgN/A
7:00 am59 °FPassing clouds.2 mph88%30.01 "HgN/A
6:30 am57 °FPassing clouds.No wind94%30.01 "HgN/A
5:30 am57 °FClear.5 mph88%29.98 "HgN/A
5:00 am59 °FClear.3 mph88%29.98 "HgN/A
4:30 am59 °FClear.No wind88%29.98 "HgN/A
4:00 am57 °FClear.2 mph88%29.98 "HgN/A
3:30 am59 °FClear.No wind88%29.98 "HgN/A
3:00 am59 °FClear.3 mph88%29.98 "HgN/A
2:30 am61 °FClear.3 mph83%29.98 "HgN/A
2:00 am59 °FClear.No wind82%29.98 "HgN/A
1:30 am59 °FPassing clouds.5 mph82%30.01 "HgN/A
1:00 am59 °FPassing clouds.No wind82%30.01 "HgN/A
12:30 am59 °FClear.No wind82%30.01 "HgN/A
12:00 am59 °FClear.No wind77%30.01 "HgN/A
10:30 pm
Sat, Apr 29
61 °FClear.8 mph72%30.04 "HgN/A
10:00 pm59 °FClear.5 mph82%30.01 "HgN/A
9:30 pm61 °FClear.No wind77%30.04 "HgN/A
9:00 pm66 °FClear.No wind64%30.04 "HgN/A
8:30 pm66 °FClear.3 mph64%30.04 "HgN/A
8:00 pm68 °FClear.6 mph56%30.01 "HgN/A
7:30 pm68 °FClear.6 mph53%30.01 "HgN/A
7:00 pm68 °FClear.6 mph53%30.01 "HgN/A
6:30 pm72 °FClear.5 mph50%29.98 "HgN/A
5:30 pm73 °FSunny.9 mph44%29.98 "HgN/A
5:00 pm75 °FSunny.10 mph41%29.95 "HgN/A
4:30 pm77 °FSunny.12 mph34%29.95 "HgN/A
4:00 pm77 °FSunny.15 mph34%29.95 "HgN/A
3:30 pm77 °FSunny.16 mph30%29.95 "HgN/A
3:00 pm77 °FSunny.15 mph30%29.95 "HgN/A
2:30 pm77 °FSunny.15 mph26%29.95 "HgN/A
2:00 pm77 °FSunny.14 mph28%29.98 "HgN/A
1:30 pm79 °FSunny.16 mph28%29.98 "HgN/A
1:00 pm77 °FSunny.15 mph28%29.98 "HgN/A
12:30 pm79 °FSunny.13 mph23%30.01 "HgN/A
12:00 pm77 °FSunny.12 mph24%30.01 "Hg10 mi
11:00 am77 °FSunny.5 mph21%30.04 "Hg10 mi
Weather by CustomWeather, © 2017

See weather overviewHow to use our weather pages